EDT,Max TemperatureF,Mean TemperatureF,Min TemperatureF,Max Dew PointF,MeanDew PointF,Min DewpointF,Max Humidity, Mean Humidity, Min Humidity, Max Sea Level PressureIn, Mean Sea Level PressureIn, Min Sea Level PressureIn, Max VisibilityMiles, Mean VisibilityMiles, Min VisibilityMiles, Max Wind SpeedMPH, Mean Wind SpeedMPH, Max Gust SpeedMPH,PrecipitationIn, CloudCover, Events, WindDirDegrees
2013-9-1,79,74,70,72,70,67,94,88,74,29.91,29.87,29.83,10,8,1,14,8,23,0.62,7,Rain-Thunderstorm,207
2013-9-2,80,74,71,72,71,70,94,90,79,29.88,29.81,29.73,10,5,1,12,5,18,0.18,8,Rain-Thunderstorm,191
2013-9-3,82,74,66,72,68,63,94,87,64,29.82,29.76,29.71,10,9,5,16,6,24,0.18,6,Rain-Thunderstorm,222
2013-9-4,81,70,59,60,57,55,87,67,42,29.94,29.88,29.82,10,10,10,14,7,,0.00,1,,262
2013-9-5,69,60,51,63,56,47,90,80,65,30.13,29.98,29.89,10,10,10,15,5,23,0.03,4,Rain,19
2013-9-6,66,57,46,49,45,42,90,69,48,30.24,30.18,30.12,10,10,10,8,4,,0.00,0,,20
2013-9-7,77,62,46,55,49,42,89,65,37,30.11,30.00,29.89,10,10,10,15,5,22,0.00,0,,228
2013-9-8,77,66,54,61,52,40,90,62,35,30.09,29.86,29.76,10,10,10,20,8,26,0.00,3,,295
2013-9-9,69,56,43,50,45,39,86,65,42,30.25,30.19,30.11,10,10,10,13,4,18,0.00,0,,227
2013-9-10,75,65,55,67,60,50,87,77,69,30.19,30.13,30.06,10,10,10,17,9,28,0.00,7,,210
2013-9-11,93,80,69,74,69,66,93,78,54,30.10,30.06,29.99,10,8,3,13,8,24,0.00,2,,210
2013-9-12,81,75,69,70,68,66,90,82,69,29.99,29.86,29.71,10,8,3,20,8,25,0.04,4,Rain,206
2013-9-13,80,70,62,68,65,55,94,84,60,29.75,29.65,29.58,10,9,5,13,5,18,0.08,7,Rain,278
2013-9-14,71,64,55,55,52,49,83,69,54,30.06,29.90,29.76,10,10,10,10,6,,0.00,5,,306
2013-9-15,72,60,48,52,49,46,90,71,47,30.17,30.11,30.07,10,10,10,10,3,,0.00,0,,229
2013-9-16,64,58,51,54,51,39,93,80,61,30.22,30.08,30.03,10,10,10,13,3,,0.02,4,Rain,319
2013-9-17,59,50,41,40,37,33,86,58,38,30.41,30.34,30.24,10,10,10,18,12,31,0.01,3,,19
2013-9-18,73,55,39,47,41,35,89,62,32,30.33,30.25,30.16,10,10,10,10,3,,0.00,0,,233
2013-9-19,79,62,46,54,49,43,90,67,34,30.16,30.11,30.05,10,10,10,8,2,,0.00,0,,241
2013-9-20,80,62,46,56,50,43,94,79,36,30.09,30.06,30.02,10,7,0,7,1,,0.00,1,Fog,207
2013-9-21,75,65,55,64,58,53,100,87,59,30.05,29.98,29.78,10,5,0,12,3,25,0.01,4,Fog,188
2013-9-22,73,63,52,65,60,46,94,82,52,29.82,29.70,29.65,10,8,1,23,9,32,0.61,6,Rain,249
2013-9-23,64,55,46,45,41,38,77,62,45,30.00,29.91,29.83,10,10,10,12,7,21,0.00,0,,319
2013-9-24,66,54,43,47,41,37,89,67,42,30.00,29.91,29.82,10,10,10,9,6,21,0.00,1,,302
2013-9-25,63,52,43,48,44,39,90,72,53,29.98,29.92,29.89,10,10,10,13,3,18,0.00,3,,33
2013-9-26,62,56,50,49,47,46,89,70,55,30.12,30.04,29.98,10,10,10,14,5,20,0.00,6,,21
2013-9-27,64,56,46,52,50,43,88,75,60,30.26,30.19,30.12,10,10,10,16,6,24,0.00,5,,10
2013-9-28,69,56,44,55,49,41,94,85,59,30.32,30.29,30.25,10,7,1,10,2,,0.00,0,,47
2013-9-29,64,52,41,54,44,37,93,84,60,30.27,30.21,30.11,10,6,0,9,1,,0.00,3,Fog,63
2013-9-30,64,54,45,55,52,42,94,82,64,30.10,30.05,29.97,10,10,10,10,5,,0.00,6,,35